TimeCST,TemperatureF,Dew PointF,Humidity,Sea Level PressureIn,VisibilityMPH,Wind Direction,Wind SpeedMPH,Gust SpeedMPH,PrecipitationIn,Events,Conditions,WindDirDegrees,DateUTC
12:15 AM,35.8,29.8,79,30.42,10.0,Calm,Calm,-,N/A,,Clear,0,2012-11-17 06:15:00
12:35 AM,36.0,29.8,78,30.42,10.0,Calm,Calm,-,N/A,,Clear,0,2012-11-17 06:35:00
1:15 AM,34.7,29.5,81,30.42,10.0,Calm,Calm,-,N/A,,Clear,0,2012-11-17 07:15:00
1:35 AM,35.2,29.8,81,30.42,10.0,Calm,Calm,-,N/A,,Clear,0,2012-11-17 07:35:00
1:55 AM,34.9,29.7,81,30.42,10.0,Calm,Calm,-,N/A,,Clear,0,2012-11-17 07:55:00
2:15 AM,34.7,29.5,81,30.42,10.0,Calm,Calm,-,N/A,,Clear,0,2012-11-17 08:15:00
2:35 AM,34.7,29.5,81,30.43,10.0,NE,3.5,-,N/A,,Clear,40,2012-11-17 08:35:00
2:55 AM,34.3,29.5,82,30.43,10.0,Calm,Calm,-,N/A,,Clear,0,2012-11-17 08:55:00
3:15 AM,32.9,28.9,85,30.42,10.0,Calm,Calm,-,N/A,,Clear,0,2012-11-17 09:15:00
3:35 AM,31.8,28.2,87,30.43,10.0,Calm,Calm,-,N/A,,Clear,0,2012-11-17 09:35:00
3:55 AM,31.8,28.9,89,30.43,10.0,Calm,Calm,-,N/A,,Clear,0,2012-11-17 09:55:00
4:15 AM,32.0,28.9,88,30.43,10.0,ENE,4.6,-,N/A,,Clear,70,2012-11-17 10:15:00
4:35 AM,31.6,28.2,87,30.43,10.0,Calm,Calm,-,N/A,,Clear,0,2012-11-17 10:35:00
4:55 AM,32.4,28.9,87,30.43,10.0,East,5.8,-,N/A,,Clear,80,2012-11-17 10:55:00
5:15 AM,32.5,29.1,87,30.43,10.0,Calm,Calm,-,N/A,,Clear,0,2012-11-17 11:15:00
5:55 AM,32.7,28.9,86,30.44,10.0,ENE,3.5,-,N/A,,Clear,70,2012-11-17 11:55:00
6:15 AM,32.5,28.9,87,30.44,10.0,Calm,Calm,-,N/A,,Clear,0,2012-11-17 12:15:00
6:35 AM,32.5,28.9,87,30.45,7.0,Calm,Calm,-,N/A,,Clear,0,2012-11-17 12:35:00
6:55 AM,32.0,28.6,87,30.45,7.0,Calm,Calm,-,N/A,,Clear,0,2012-11-17 12:55:00
7:15 AM,33.3,29.3,85,30.46,10.0,Calm,Calm,-,N/A,,Clear,0,2012-11-17 13:15:00
7:35 AM,34.9,29.8,82,30.46,10.0,Calm,Calm,-,N/A,,Clear,0,2012-11-17 13:35:00
7:55 AM,36.7,30.7,79,30.47,10.0,NE,3.5,-,N/A,,Clear,50,2012-11-17 13:55:00
8:15 AM,38.3,31.5,76,30.47,10.0,ENE,3.5,-,N/A,,Clear,70,2012-11-17 14:15:00
8:35 AM,40.3,32.0,72,30.47,10.0,East,5.8,-,N/A,,Clear,80,2012-11-17 14:35:00
8:55 AM,42.3,32.0,67,30.47,10.0,East,4.6,-,N/A,,Clear,80,2012-11-17 14:55:00
9:15 AM,44.4,32.0,62,30.48,10.0,East,4.6,-,N/A,,Clear,90,2012-11-17 15:15:00
9:35 AM,46.6,32.2,57,30.48,10.0,East,4.6,-,N/A,,Clear,90,2012-11-17 15:35:00
10:15 AM,50.2,32.4,50,30.48,10.0,East,3.5,-,N/A,,Clear,80,2012-11-17 16:15:00
10:35 AM,51.8,32.5,48,30.48,10.0,Calm,Calm,-,N/A,,Clear,0,2012-11-17 16:35:00
11:55 AM,56.5,31.5,39,30.44,10.0,Calm,Calm,-,N/A,,Clear,0,2012-11-17 17:55:00
12:15 PM,56.8,31.8,39,30.43,10.0,Calm,Calm,-,N/A,,Clear,0,2012-11-17 18:15:00
12:35 PM,57.6,30.7,36,30.43,10.0,Calm,Calm,-,N/A,,Clear,0,2012-11-17 18:35:00
12:55 PM,57.9,30.2,35,30.42,10.0,North,3.5,-,N/A,,Clear,350,2012-11-17 18:55:00
1:15 PM,58.3,29.8,34,30.41,10.0,Calm,Calm,-,N/A,,Clear,0,2012-11-17 19:15:00
1:55 PM,59.0,31.6,36,30.41,10.0,Calm,Calm,-,N/A,,Clear,0,2012-11-17 19:55:00
2:15 PM,59.0,31.5,35,30.40,10.0,ENE,5.8,-,N/A,,Clear,70,2012-11-17 20:15:00
2:55 PM,58.8,30.4,34,30.40,10.0,NE,3.5,-,N/A,,Clear,50,2012-11-17 20:55:00
3:15 PM,59.0,31.1,35,30.39,10.0,NE,3.5,-,N/A,,Clear,40,2012-11-17 21:15:00
3:35 PM,58.6,31.3,36,30.39,10.0,ENE,3.5,-,N/A,,Clear,60,2012-11-17 21:35:00
4:15 PM,57.0,29.8,36,30.39,10.0,Calm,Calm,-,N/A,,Clear,0,2012-11-17 22:15:00
4:35 PM,54.7,30.4,40,30.39,10.0,NNE,3.5,-,N/A,,Clear,20,2012-11-17 22:35:00
4:55 PM,53.1,30.2,42,30.40,10.0,North,-9999.0,-,N/A,,Clear,0,2012-11-17 22:55:00
5:15 PM,52.3,30.2,43,30.40,10.0,North,-9999.0,-,N/A,,Clear,0,2012-11-17 23:15:00
5:35 PM,51.8,30.2,44,30.40,10.0,North,-9999.0,-,N/A,,Clear,0,2012-11-17 23:35:00
5:55 PM,49.1,30.7,49,30.40,10.0,Calm,Calm,-,N/A,,Clear,0,2012-11-17 23:55:00
6:15 PM,45.0,31.6,60,30.40,10.0,Calm,Calm,-,N/A,,Clear,0,2012-11-18 00:15:00
6:35 PM,44.2,32.0,62,30.40,10.0,Calm,Calm,-,N/A,,Clear,0,2012-11-18 00:35:00
6:55 PM,44.1,31.6,62,30.41,10.0,Calm,Calm,-,N/A,,Clear,0,2012-11-18 00:55:00
7:15 PM,43.5,31.8,63,30.40,10.0,ENE,3.5,-,N/A,,Clear,70,2012-11-18 01:15:00
7:55 PM,42.4,31.5,65,30.41,10.0,Calm,Calm,-,N/A,,Clear,0,2012-11-18 01:55:00
8:15 PM,43.2,31.3,63,30.41,10.0,Calm,Calm,-,N/A,,Clear,0,2012-11-18 02:15:00
8:35 PM,43.7,31.3,62,30.40,10.0,North,-9999.0,-,N/A,,Clear,0,2012-11-18 02:35:00
8:55 PM,42.3,30.9,64,30.41,10.0,Calm,Calm,-,N/A,,Clear,0,2012-11-18 02:55:00
9:15 PM,40.3,30.9,69,30.40,10.0,Calm,Calm,-,N/A,,Clear,0,2012-11-18 03:15:00
9:35 PM,38.1,30.7,75,30.40,10.0,Calm,Calm,-,N/A,,Clear,0,2012-11-18 03:35:00
9:55 PM,38.1,30.9,75,30.40,10.0,Calm,Calm,-,N/A,,Clear,0,2012-11-18 03:55:00
10:15 PM,37.6,30.7,76,30.40,10.0,Calm,Calm,-,N/A,,Clear,0,2012-11-18 04:15:00
10:35 PM,36.7,30.7,79,30.40,10.0,Calm,Calm,-,N/A,,Clear,0,2012-11-18 04:35:00
10:55 PM,36.5,30.6,79,30.40,10.0,Calm,Calm,-,N/A,,Clear,0,2012-11-18 04:55:00
11:35 PM,35.1,30.4,83,30.40,10.0,Calm,Calm,-,N/A,,Clear,0,2012-11-18 05:35:00
11:55 PM,34.3,30.2,85,30.40,10.0,Calm,Calm,-,N/A,,Clear,0,2012-11-18 05:55:00